Find Orbcomm FM113

NORAD ID: 41185 Int'l Des: 2015-081 Owner: ORBC Country: US Constellation: orbcomm operational
LEOCIRCULAR

Live Position

Loading 3D Globe...

About Orbcomm FM113

Description loading...

Upcoming Passes

Passes for default location (London). Set your location on the main map for personalized predictions.

Altitude History

Loading altitude history...

Two-Line Element Set

1 41185U 15081G 26106.54813069 .00000204 00000-0 79454-4 0 9994
2 41185 47.0001 202.0508 0002323 274.3865 85.6755 14.58791095549930
Epoch: Apr 16, 2026 • Age: 23 hours

Current Status

Altitude 709.5 km
Velocity 7.50 km/s
Sub-Earth Point -43.14°S, 57.47°E
Launch Date Dec 22, 2015
Age 10.3 years
Type other

Technical Details

Classification Payload
Mass 172.00 kg
Dry Mass 158.00 kg
Total Mass 172.00 kg
Length 1.00 m
Diameter 0.50 m
Span 13.00 m
Shape Box+pan+ant
Manufacturer SNVL
Bus Type SN-100A
Phase Status In Orbit
Owner/State ORBC/US

Most Searched